| time (UTC) | temp C | wind direction | speed KPH | gust KPH | rain 1hr cm | rain 24hr cm | rain mn cm | humidity % | barometer mb |
| 20260506215336 | 18 | 356 | 16.1 | 20.9 | 0.00 | 0.08 | 0.08 | 68 | 1013.7 |
| 20260506214827 | 18 | 9 | 9.7 | 16.1 | 0.00 | 0.08 | 0.08 | 68 | 1013.7 |
| 20260506214323 | 18 | 53 | 4.8 | 17.7 | 0.00 | 0.08 | 0.08 | 67 | 1013.6 |
| 20260506213821 | 18 | 15 | 11.3 | 25.7 | 0.00 | 0.08 | 0.08 | 66 | 1013.6 |
| 20260506213318 | 18 | 9 | 14.5 | 22.5 | 0.00 | 0.08 | 0.08 | 67 | 1013.5 |
| 20260506212816 | 18 | 338 | 12.9 | 24.1 | 0.00 | 0.08 | 0.08 | 66 | 1013.6 |
| 20260506212311 | 18 | 2 | 19.3 | 19.3 | 0.00 | 0.08 | 0.08 | 67 | 1013.5 |
| 20260506211801 | 18 | 354 | 8.0 | 11.3 | 0.00 | 0.08 | 0.08 | 66 | 1013.6 |
| 20260506211258 | 18 | 6 | 8.0 | 16.1 | 0.00 | 0.08 | 0.08 | 68 | 1013.7 |
| 20260506210755 | 18 | 1 | 9.7 | 19.3 | 0.00 | 0.08 | 0.08 | 68 | 1014.0 |
| 20260506210251 | 19 | 19 | 9.7 | 11.3 | 0.00 | 0.08 | 0.08 | 67 | 1014.2 |
| 20260506205748 | 18 | 333 | 1.6 | 12.9 | 0.00 | 0.08 | 0.08 | 68 | 1014.1 |
| 20260506205244 | 18 | 92 | 1.6 | 17.7 | 0.00 | 0.08 | 0.08 | 69 | 1014.1 |
| 20260506204741 | 18 | 19 | 6.4 | 19.3 | 0.00 | 0.08 | 0.08 | 68 | 1014.0 |
| 20260506204239 | 18 | 330 | 8.0 | 22.5 | 0.00 | 0.08 | 0.08 | 69 | 1014.0 |
| 20260506203736 | 18 | 354 | 1.6 | 14.5 | 0.00 | 0.08 | 0.08 | 69 | 1014.3 |
| 20260506203233 | 18 | 23 | 9.7 | 17.7 | 0.00 | 0.08 | 0.08 | 68 | 1014.1 |
| 20260506202730 | 18 | 2 | 9.7 | 17.7 | 0.00 | 0.08 | 0.08 | 68 | 1014.0 |
| 20260506202227 | 18 | 77 | 1.6 | 4.8 | 0.00 | 0.08 | 0.08 | 68 | 1014.3 |
| 20260506201724 | 17 | 26 | 4.8 | 14.5 | 0.00 | 0.08 | 0.08 | 68 | 1014.2 |
| 20260506201220 | 18 | 43 | 14.5 | 17.7 | 0.00 | 0.08 | 0.08 | 68 | 1014.1 |
| 20260506200717 | 17 | 21 | 1.6 | 8.0 | 0.00 | 0.08 | 0.08 | 69 | 1014.3 |
| 20260506200208 | 18 | 344 | 4.8 | 4.8 | 0.00 | 0.08 | 0.08 | 70 | 1014.4 |
| 20260506195659 | 17 | 288 | 6.4 | 9.7 | 0.00 | 0.08 | 0.08 | 70 | 1014.3 |
| 20260506195155 | 18 | 356 | 3.2 | 6.4 | 0.00 | 0.08 | 0.08 | 67 | 1014.5 |
| 20260506194653 | 17 | 51 | 4.8 | 8.0 | 0.00 | 0.08 | 0.08 | 69 | 1014.5 |
| 20260506194149 | 18 | 29 | 3.2 | 8.0 | 0.00 | 0.08 | 0.08 | 69 | 1014.7 |
| 20260506193647 | 17 | 334 | 3.2 | 6.4 | 0.00 | 0.08 | 0.08 | 69 | 1014.7 |
| 20260506193144 | 17 | 313 | 4.8 | 11.3 | 0.00 | 0.08 | 0.08 | 70 | 1014.9 |
| 20260506192640 | 16 | 353 | 4.8 | 12.9 | 0.00 | 0.08 | 0.08 | 70 | 1014.9 |
| 20260506192137 | 17 | 39 | 6.4 | 11.3 | 0.00 | 0.08 | 0.08 | 71 | 1014.7 |
| 20260506191634 | 17 | 337 | 8.0 | 12.9 | 0.00 | 0.08 | 0.08 | 70 | 1015.0 |
| 20260506191130 | 16 | 313 | 1.6 | 8.0 | 0.00 | 0.08 | 0.08 | 70 | 1014.8 |
| 20260506190627 | 16 | 11 | 0.0 | 4.8 | 0.00 | 0.08 | 0.08 | 70 | 1014.9 |
| 20260506190124 | 16 | 61 | 1.6 | 14.5 | 0.00 | 0.08 | 0.08 | 72 | 1014.5 |
| 20260506185621 | 16 | 317 | 9.7 | 17.7 | 0.00 | 0.08 | 0.08 | 73 | 1014.5 |
| 20260506185117 | 16 | 341 | 16.1 | 19.3 | 0.00 | 0.08 | 0.08 | 72 | 1014.2 |
| 20260506184615 | 16 | 337 | 11.3 | 20.9 | 0.00 | 0.08 | 0.08 | 74 | 1014.5 |
| 20260506184112 | 15 | 355 | 8.0 | 17.7 | 0.00 | 0.08 | 0.08 | 73 | 1014.6 |
| 20260506183609 | 15 | 338 | 6.4 | 14.5 | 0.00 | 0.08 | 0.08 | 74 | 1014.8 |
| 20260506183104 | 15 | 359 | 14.5 | 24.1 | 0.00 | 0.08 | 0.08 | 73 | 1014.5 |
| 20260506182602 | 15 | 0 | 17.7 | 22.5 | 0.00 | 0.08 | 0.08 | 73 | 1014.7 |
| 20260506182059 | 15 | 52 | 3.2 | 16.1 | 0.00 | 0.08 | 0.08 | 76 | 1014.8 |
| 20260506181556 | 15 | 11 | 17.7 | 17.7 | 0.00 | 0.08 | 0.08 | 74 | 1014.7 |
| 20260506181053 | 14 | 12 | 17.7 | 25.7 | 0.00 | 0.08 | 0.08 | 75 | 1014.6 |
| 20260506180544 | 13 | 43 | 6.4 | 24.1 | 0.00 | 0.08 | 0.08 | 77 | 1015.0 |
| 20260506180041 | 14 | 45 | 12.9 | 16.1 | 0.00 | 0.08 | 0.08 | 76 | 1015.0 |
| 20260506175537 | 14 | 50 | 14.5 | 20.9 | 0.00 | 0.08 | 0.08 | 76 | 1014.8 |
| 20260506175034 | 13 | 18 | 12.9 | 22.5 | 0.00 | 0.08 | 0.08 | 76 | 1015.0 |
| 20260506174533 | 14 | 337 | 4.8 | 9.7 | 0.00 | 0.08 | 0.08 | 77 | 1015.2 |
| 20260506174028 | 13 | 26 | 6.4 | 17.7 | 0.00 | 0.08 | 0.08 | 78 | 1015.1 |
| 20260506173526 | 13 | 39 | 4.8 | 20.9 | 0.00 | 0.08 | 0.08 | 78 | 1014.9 |
| 20260506173022 | 13 | 5 | 22.5 | 24.1 | 0.00 | 0.08 | 0.08 | 78 | 1015.1 |
| 20260506172519 | 13 | 40 | 9.7 | 29.0 | 0.00 | 0.08 | 0.08 | 77 | 1014.7 |
| 20260506172010 | 13 | 52 | 8.0 | 25.7 | 0.00 | 0.08 | 0.08 | 80 | 1014.9 |
| 20260506171507 | 12 | 31 | 11.3 | 30.6 | 0.00 | 0.08 | 0.08 | 79 | 1015.2 |
| 20260506171004 | 12 | 32 | 14.5 | 24.1 | 0.00 | 0.08 | 0.08 | 81 | 1015.0 |
| 20260506170501 | 12 | 358 | 11.3 | 25.7 | 0.00 | 0.08 | 0.08 | 81 | 1015.0 |
| 20260506165954 | 12 | 5 | 17.7 | 24.1 | 0.00 | 0.08 | 0.08 | 81 | 1015.0 |
| 20260506165453 | 12 | 10 | 17.7 | 22.5 | 0.00 | 0.08 | 0.08 | 82 | 1015.2 |
| 20260506164948 | 12 | 16 | 14.5 | 24.1 | 0.00 | 0.08 | 0.08 | 82 | 1015.1 |
| 20260506164445 | 12 | 21 | 9.7 | 20.9 | 0.00 | 0.08 | 0.08 | 83 | 1015.4 |
| 20260506163943 | 11 | 0 | 14.5 | 25.7 | 0.00 | 0.08 | 0.08 | 83 | 1014.8 |
| 20260506163438 | 11 | 13 | 19.3 | 22.5 | 0.00 | 0.08 | 0.08 | 83 | 1014.8 |
| 20260506162933 | 11 | 37 | 14.5 | 19.3 | 0.00 | 0.08 | 0.08 | 84 | 1015.0 |
| 20260506162431 | 11 | 11 | 12.9 | 24.1 | 0.00 | 0.08 | 0.08 | 85 | 1015.1 |
| 20260506161928 | 11 | 14 | 12.9 | 29.0 | 0.00 | 0.08 | 0.08 | 85 | 1015.0 |
| 20260506161425 | 11 | 6 | 17.7 | 22.5 | 0.00 | 0.08 | 0.08 | 86 | 1014.9 |
| 20260506160917 | 11 | 20 | 9.7 | 25.7 | 0.00 | 0.08 | 0.08 | 86 | 1014.8 |
| 20260506160414 | 11 | 25 | 9.7 | 24.1 | 0.00 | 0.08 | 0.08 | 86 | 1014.9 |
| 20260506155912 | 11 | 1 | 14.5 | 29.0 | 0.00 | 0.08 | 0.08 | 87 | 1014.6 |
| 20260506155408 | 11 | 12 | 19.3 | 32.2 | 0.00 | 0.08 | 0.08 | 86 | 1014.9 |
| 20260506153525 | 10 | 10 | 17.7 | 25.7 | 0.00 | 0.08 | 0.08 | 89 | 1015.0 |
| 20260506153022 | 10 | 14 | 12.9 | 24.1 | 0.00 | 0.08 | 0.08 | 90 | 1015.0 |
| 20260506152519 | 10 | 13 | 12.9 | 29.0 | 0.00 | 0.08 | 0.08 | 90 | 1015.0 |
| 20260506152017 | 10 | 18 | 8.0 | 22.5 | 0.00 | 0.08 | 0.08 | 93 | 1014.8 |
| 20260506151514 | 10 | 13 | 14.5 | 25.7 | 0.13 | 0.08 | 0.08 | 92 | 1015.4 |
| 20260506151012 | 10 | 13 | 6.4 | 17.7 | 0.18 | 0.08 | 0.08 | 93 | 1015.9 |
| 20260506150508 | 10 | 15 | 12.9 | 17.7 | 0.05 | 0.05 | 0.05 | 93 | 1016.3 |
| 20260506150005 | 10 | 329 | 8.0 | 9.7 | 0.05 | 0.05 | 0.05 | 93 | 1016.9 |
| 20260506145501 | 10 | 314 | 4.8 | 6.4 | 0.00 | 0.03 | 0.03 | 93 | 1017.2 |
| 20260506144959 | 10 | 177 | 0.0 | 9.7 | 0.05 | 0.03 | 0.03 | 93 | 1017.2 |
| 20260506144455 | 10 | 322 | 9.7 | 11.3 | 0.05 | 0.03 | 0.03 | 92 | 1017.0 |
| 20260506143954 | 10 | 12 | 4.8 | 11.3 | 0.00 | 0.03 | 0.03 | 92 | 1016.6 |
| 20260506143450 | 10 | 26 | 6.4 | 16.1 | 0.05 | 0.03 | 0.03 | 93 | 1015.7 |
| 20260506142949 | 10 | 0 | 17.7 | 22.5 | 0.05 | 0.03 | 0.03 | 93 | 1014.9 |
| 20260506142446 | 10 | 20 | 16.1 | 20.9 | 0.00 | 0.00 | 0.00 | 93 | 1014.5 |
| 20260506141944 | 10 | 10 | 8.0 | 17.7 | 0.00 | 0.00 | 0.00 | 92 | 1015.2 |
| 20260506141442 | 10 | 6 | 9.7 | 17.7 | 0.00 | 0.00 | 0.00 | 93 | 1015.2 |
| 20260506140940 | 10 | 15 | 8.0 | 17.7 | 0.00 | 0.00 | 0.00 | 93 | 1014.9 |
| 20260506140437 | 10 | 18 | 17.7 | 24.1 | 0.05 | 0.00 | 0.00 | 93 | 1015.0 |
| 20260506135933 | 10 | 0 | 8.0 | 14.5 | 0.05 | 0.00 | 0.00 | 94 | 1015.0 |
| 20260506135431 | 10 | 353 | 12.9 | 16.1 | 0.00 | 0.00 | 0.00 | 92 | 1015.4 |
| 20260506134927 | 10 | 14 | 12.9 | 20.9 | 0.00 | 0.00 | 0.00 | 91 | 1015.7 |
| 20260506134423 | 10 | 7 | 9.7 | 17.7 | 0.00 | 0.00 | 0.00 | 90 | 1015.8 |
| 20260506133920 | 10 | 7 | 6.4 | 16.1 | 0.00 | 0.00 | 0.00 | 91 | 1015.5 |
| 20260506133417 | 10 | 356 | 8.0 | 17.7 | 0.00 | 0.00 | 0.00 | 91 | 1015.5 |
| 20260506132914 | 10 | 18 | 8.0 | 19.3 | 0.00 | 0.00 | 0.00 | 91 | 1015.0 |
| 20260506132411 | 10 | 4 | 14.5 | 16.1 | 0.00 | 0.00 | 0.00 | 91 | 1014.5 |
| 20260506131909 | 10 | 0 | 9.7 | 25.7 | 0.00 | 0.00 | 0.00 | 92 | 1014.5 |
| 20260506131404 | 10 | 11 | 12.9 | 22.5 | 0.00 | 0.00 | 0.00 | 91 | 1014.0 |
| 20260506130902 | 10 | 5 | 17.7 | 25.7 | 0.00 | 0.00 | 0.00 | 91 | 1014.1 |
| 20260506130358 | 10 | 12 | 11.3 | 17.7 | 0.00 | 0.00 | 0.00 | 92 | 1014.4 |
| 20260506125856 | 10 | 355 | 8.0 | 17.7 | 0.00 | 0.00 | 0.00 | 92 | 1014.6 |
| 20260506125355 | 10 | 353 | 9.7 | 20.9 | 0.00 | 0.00 | 0.00 | 92 | 1014.2 |
| 20260506124853 | 10 | 356 | 11.3 | 27.4 | 0.00 | 0.00 | 0.00 | 92 | 1013.9 |
| 20260506124349 | 10 | 24 | 9.7 | 27.4 | 0.00 | 0.00 | 0.00 | 92 | 1013.8 |
| 20260506123847 | 10 | 3 | 19.3 | 20.9 | 0.00 | 0.00 | 0.00 | 92 | 1013.5 |
| 20260506123345 | 10 | 5 | 22.5 | 30.6 | 0.00 | 0.00 | 0.00 | 92 | 1013.6 |
| 20260506122842 | 10 | 6 | 16.1 | 19.3 | 0.00 | 0.00 | 0.00 | 93 | 1013.8 |
| 20260506122339 | 10 | 25 | 17.7 | 25.7 | 0.00 | 0.00 | 0.00 | 93 | 1013.5 |
| 20260506121837 | 10 | 14 | 17.7 | 25.7 | 0.00 | 0.00 | 0.00 | 93 | 1013.8 |
| 20260506121334 | 10 | 5 | 24.1 | 24.1 | 0.00 | 0.00 | 0.00 | 93 | 1013.9 |
| 20260506120831 | 10 | 2 | 16.1 | 24.1 | 0.00 | 0.00 | 0.00 | 93 | 1013.8 |
| 20260506120329 | 10 | 358 | 14.5 | 29.0 | 0.00 | 0.00 | 0.00 | 94 | 1013.5 |
| 20260506115826 | 9 | 348 | 27.4 | 27.4 | 0.00 | 0.00 | 0.00 | 94 | 1013.6 |
| 20260506115324 | 9 | 6 | 14.5 | 29.0 | 0.00 | 0.00 | 0.00 | 94 | 1013.8 |
| 20260506114821 | 10 | 6 | 24.1 | 27.4 | 0.00 | 0.00 | 0.00 | 93 | 1013.6 |
| 20260506114319 | 10 | 352 | 19.3 | 30.6 | 0.00 | 0.00 | 0.00 | 93 | 1013.8 |
| 20260506113818 | 10 | 349 | 17.7 | 29.0 | 0.00 | 0.00 | 0.00 | 92 | 1013.3 |
| 20260506113315 | 10 | 352 | 20.9 | 27.4 | 0.00 | 0.00 | 0.00 | 91 | 1013.3 |
| 20260506112811 | 10 | 353 | 11.3 | 30.6 | 0.00 | 0.00 | 0.00 | 91 | 1013.3 |
| 20260506112308 | 10 | 352 | 24.1 | 29.0 | 0.00 | 0.00 | 0.00 | 90 | 1013.4 |
| 20260506111806 | 10 | 339 | 20.9 | 22.5 | 0.00 | 0.00 | 0.00 | 89 | 1013.0 |
| 20260506111304 | 10 | 359 | 11.3 | 27.4 | 0.00 | 0.00 | 0.00 | 88 | 1012.9 |
| 20260506110801 | 10 | 0 | 6.4 | 32.2 | 0.00 | 0.00 | 0.00 | 87 | 1012.8 |
| 20260506110258 | 10 | 351 | 11.3 | 33.8 | 0.00 | 0.00 | 0.00 | 86 | 1012.8 |
| 20260506105754 | 11 | 357 | 17.7 | 27.4 | 0.00 | 0.00 | 0.00 | 86 | 1012.8 |
| 20260506105251 | 11 | 345 | 11.3 | 30.6 | 0.00 | 0.00 | 0.00 | 85 | 1012.4 |
| 20260506104749 | 11 | 346 | 16.1 | 30.6 | 0.00 | 0.00 | 0.00 | 84 | 1012.4 |
| 20260506104247 | 11 | 355 | 17.7 | 29.0 | 0.00 | 0.00 | 0.00 | 84 | 1012.5 |
| 20260506103744 | 11 | 357 | 16.1 | 32.2 | 0.00 | 0.00 | 0.00 | 84 | 1012.6 |
| 20260506103241 | 11 | 335 | 16.1 | 35.4 | 0.00 | 0.00 | 0.00 | 84 | 1012.3 |
| 20260506102738 | 11 | 355 | 17.7 | 30.6 | 0.00 | 0.00 | 0.00 | 85 | 1012.3 |
| 20260506102236 | 11 | 330 | 14.5 | 29.0 | 0.00 | 0.00 | 0.00 | 84 | 1012.5 |
| 20260506101733 | 11 | 359 | 35.4 | 35.4 | 0.00 | 0.00 | 0.00 | 84 | 1012.2 |
| 20260506101230 | 11 | 344 | 16.1 | 37.0 | 0.00 | 0.00 | 0.00 | 84 | 1012.1 |
| 20260506100728 | 12 | 354 | 20.9 | 30.6 | 0.00 | 0.00 | 0.00 | 83 | 1012.2 |
| 20260506100226 | 12 | 337 | 19.3 | 30.6 | 0.00 | 0.00 | 0.00 | 83 | 1011.8 |
| 20260506095724 | 12 | 10 | 17.7 | 22.5 | 0.00 | 0.00 | 0.00 | 83 | 1011.8 |
| 20260506095220 | 12 | 332 | 20.9 | 27.4 | 0.00 | 0.00 | 0.00 | 82 | 1011.7 |
| 20260506094717 | 12 | 348 | 12.9 | 19.3 | 0.00 | 0.00 | 0.00 | 83 | 1011.5 |
| 20260506094215 | 12 | 2 | 6.4 | 17.7 | 0.00 | 0.00 | 0.00 | 83 | 1011.4 |
| 20260506093714 | 12 | 13 | 11.3 | 22.5 | 0.00 | 0.00 | 0.00 | 82 | 1011.3 |
| 20260506093210 | 12 | 359 | 22.5 | 22.5 | 0.00 | 0.00 | 0.00 | 82 | 1011.4 |
| 20260506092708 | 12 | 7 | 14.5 | 20.9 | 0.00 | 0.00 | 0.00 | 82 | 1011.0 |
| 20260506092205 | 12 | 0 | 12.9 | 20.9 | 0.00 | 0.00 | 0.00 | 82 | 1011.4 |
| 20260506091703 | 12 | 352 | 6.4 | 16.1 | 0.00 | 0.00 | 0.00 | 82 | 1011.1 |
| 20260506091200 | 12 | 343 | 11.3 | 19.3 | 0.00 | 0.00 | 0.00 | 82 | 1011.2 |
| 20260506090658 | 12 | 3 | 16.1 | 19.3 | 0.00 | 0.00 | 0.00 | 83 | 1011.0 |
| 20260506090154 | 12 | 354 | 9.7 | 20.9 | 0.00 | 0.00 | 0.00 | 83 | 1010.9 |
| 20260506085651 | 12 | 1 | 11.3 | 19.3 | 0.00 | 0.00 | 0.00 | 83 | 1011.2 |
| 20260506085147 | 13 | 354 | 8.0 | 17.7 | 0.00 | 0.00 | 0.00 | 82 | 1011.0 |
| 20260506084644 | 13 | 0 | 9.7 | 12.9 | 0.00 | 0.00 | 0.00 | 83 | 1011.3 |
| 20260506084141 | 12 | 2 | 8.0 | 17.7 | 0.00 | 0.00 | 0.00 | 82 | 1010.8 |
| 20260506083638 | 12 | 4 | 8.0 | 16.1 | 0.00 | 0.00 | 0.00 | 82 | 1010.7 |
| 20260506083136 | 13 | 4 | 4.8 | 14.5 | 0.00 | 0.00 | 0.00 | 82 | 1010.8 |
| 20260506082632 | 13 | 12 | 9.7 | 19.3 | 0.00 | 0.00 | 0.00 | 82 | 1010.7 |
| 20260506082128 | 13 | 0 | 19.3 | 22.5 | 0.00 | 0.00 | 0.00 | 82 | 1010.7 |
| 20260506081626 | 13 | 13 | 16.1 | 20.9 | 0.00 | 0.00 | 0.00 | 82 | 1010.7 |
| 20260506081124 | 13 | 349 | 11.3 | 19.3 | 0.00 | 0.00 | 0.00 | 82 | 1010.9 |
| 20260506080621 | 13 | 18 | 11.3 | 17.7 | 0.00 | 0.00 | 0.00 | 82 | 1011.1 |
| 20260506080118 | 13 | 0 | 12.9 | 17.7 | 0.00 | 0.00 | 0.00 | 82 | 1010.9 |
| 20260506073101 | 13 | 357 | 16.1 | 22.5 | 0.00 | 0.00 | 0.00 | 82 | 1011.1 |
| 20260506072558 | 13 | 10 | 6.4 | 16.1 | 0.00 | 0.00 | 0.00 | 83 | 1011.2 |
| 20260506072056 | 13 | 11 | 11.3 | 20.9 | 0.00 | 0.00 | 0.00 | 83 | 1010.8 |
| 20260506071554 | 13 | 20 | 8.0 | 16.1 | 0.00 | 0.00 | 0.00 | 83 | 1010.8 |
| 20260506071051 | 13 | 10 | 12.9 | 16.1 | 0.00 | 0.00 | 0.00 | 83 | 1010.9 |
| 20260506070548 | 13 | 21 | 11.3 | 16.1 | 0.00 | 0.00 | 0.00 | 83 | 1010.7 |
| 20260506062022 | 13 | 48 | 22.5 | 24.1 | 0.00 | 0.00 | 0.00 | 84 | 1010.4 |
| 20260506061518 | 13 | 49 | 14.5 | 14.5 | 0.00 | 0.00 | 0.00 | 84 | 1010.4 |
| 20260506061016 | 13 | 13 | 6.4 | 17.7 | 0.00 | 0.00 | 0.00 | 85 | 1010.3 |
| 20260506060514 | 14 | 34 | 6.4 | 14.5 | 0.00 | 0.00 | 0.00 | 85 | 1010.5 |
| 20260506050943 | 15 | 11 | 11.3 | 20.9 | 0.00 | 0.00 | 0.00 | 85 | 1010.5 |
| 20260506050441 | 15 | 4 | 16.1 | 19.3 | 0.00 | 0.00 | 0.00 | 85 | 1010.4 |
| 20260506044931 | 15 | 358 | 9.7 | 22.5 | 0.00 | 0.00 | 0.00 | 84 | 1010.4 |
| 20260506044429 | 15 | 347 | 9.7 | 17.7 | 0.00 | 0.00 | 0.00 | 84 | 1010.5 |
| 20260506043926 | 15 | 358 | 8.0 | 24.1 | 0.00 | 0.00 | 0.00 | 84 | 1010.4 |
| 20260506043423 | 15 | 3 | 11.3 | 20.9 | 0.00 | 0.00 | 0.00 | 84 | 1010.8 |
| 20260506042921 | 15 | 1 | 17.7 | 20.9 | 0.00 | 0.00 | 0.00 | 84 | 1010.4 |
| 20260506042420 | 15 | 353 | 11.3 | 22.5 | 0.00 | 0.00 | 0.00 | 84 | 1010.5 |
| 20260506041918 | 15 | 0 | 19.3 | 24.1 | 0.00 | 0.00 | 0.00 | 83 | 1010.5 |
| 20260506041415 | 15 | 4 | 14.5 | 19.3 | 0.00 | 0.00 | 0.00 | 83 | 1010.7 |
| 20260506040912 | 15 | 8 | 20.9 | 22.5 | 0.00 | 0.00 | 0.00 | 83 | 1010.5 |
| 20260506040410 | 15 | 0 | 14.5 | 24.1 | 0.00 | 0.00 | 0.00 | 82 | 1010.4 |
| 20260506035905 | 15 | 0 | 12.9 | 22.5 | 0.00 | 0.00 | 0.00 | 82 | 1010.5 |
| 20260506035403 | 15 | 340 | 6.4 | 22.5 | 0.00 | 0.00 | 0.00 | 82 | 1010.4 |
| 20260506034900 | 15 | 5 | 14.5 | 24.1 | 0.00 | 0.00 | 0.00 | 82 | 1010.5 |
| 20260506034358 | 15 | 335 | 19.3 | 25.7 | 0.00 | 0.00 | 0.00 | 81 | 1010.4 |
| 20260506033854 | 15 | 356 | 12.9 | 25.7 | 0.00 | 0.00 | 0.00 | 81 | 1010.4 |
| 20260506033351 | 15 | 0 | 17.7 | 30.6 | 0.00 | 0.00 | 0.00 | 81 | 1010.1 |
| 20260506032848 | 15 | 336 | 20.9 | 30.6 | 0.00 | 0.00 | 0.00 | 81 | 1010.0 |
| 20260506032344 | 16 | 338 | 14.5 | 20.9 | 0.00 | 0.00 | 0.00 | 81 | 1009.9 |
| 20260506031841 | 16 | 344 | 9.7 | 24.1 | 0.00 | 0.00 | 0.00 | 81 | 1009.9 |
| 20260506031339 | 16 | 355 | 11.3 | 27.4 | 0.00 | 0.00 | 0.00 | 81 | 1009.6 |
| 20260506030836 | 16 | 0 | 11.3 | 20.9 | 0.00 | 0.00 | 0.00 | 81 | 1009.4 |
| 20260506030334 | 16 | 359 | 17.7 | 22.5 | 0.00 | 0.00 | 0.00 | 81 | 1009.2 |
| 20260506025831 | 16 | 349 | 9.7 | 22.5 | 0.00 | 0.00 | 0.00 | 80 | 1009.3 |
| 20260506025327 | 16 | 5 | 22.5 | 27.4 | 0.00 | 0.00 | 0.00 | 81 | 1009.2 |
| 20260506024824 | 16 | 0 | 22.5 | 25.7 | 0.00 | 0.00 | 0.00 | 81 | 1009.1 |
| 20260506024321 | 16 | 2 | 16.1 | 17.7 | 0.00 | 0.00 | 0.00 | 81 | 1009.1 |
| 20260506023817 | 16 | 6 | 12.9 | 19.3 | 0.00 | 0.00 | 0.00 | 81 | 1009.2 |
| 20260506023314 | 16 | 4 | 12.9 | 24.1 | 0.00 | 0.00 | 0.00 | 80 | 1009.0 |
| 20260506022811 | 17 | 358 | 17.7 | 27.4 | 0.00 | 0.00 | 0.00 | 79 | 1008.8 |
| 20260506022309 | 17 | 17 | 6.4 | 27.4 | 0.00 | 0.00 | 0.00 | 79 | 1008.8 |
| 20260506021807 | 17 | 7 | 14.5 | 24.1 | 0.00 | 0.00 | 0.00 | 79 | 1008.8 |
| 20260506021303 | 17 | 2 | 14.5 | 17.7 | 0.00 | 0.00 | 0.00 | 79 | 1008.7 |
| 20260506020800 | 17 | 355 | 6.4 | 24.1 | 0.00 | 0.00 | 0.00 | 79 | 1008.8 |
| 20260506020258 | 17 | 8 | 8.0 | 19.3 | 0.00 | 0.00 | 0.00 | 79 | 1008.6 |
| 20260506015755 | 17 | 2 | 12.9 | 22.5 | 0.00 | 0.00 | 0.00 | 78 | 1008.2 |
| 20260506015253 | 17 | 4 | 19.3 | 22.5 | 0.00 | 0.00 | 0.00 | 78 | 1008.2 |
| 20260506014749 | 18 | 0 | 6.4 | 20.9 | 0.00 | 0.00 | 0.00 | 78 | 1008.1 |
| 20260506014246 | 18 | 3 | 12.9 | 22.5 | 0.00 | 0.00 | 0.00 | 78 | 1007.7 |
| 20260506013743 | 18 | 351 | 9.7 | 22.5 | 0.00 | 0.00 | 0.00 | 77 | 1007.4 |
| 20260506013240 | 18 | 2 | 19.3 | 32.2 | 0.00 | 0.00 | 0.00 | 77 | 1007.2 |
| 20260506012736 | 18 | 6 | 16.1 | 27.4 | 0.00 | 0.00 | 0.00 | 76 | 1007.6 |
| 20260506012233 | 18 | 6 | 14.5 | 20.9 | 0.00 | 0.00 | 0.00 | 77 | 1007.4 |
| 20260506011731 | 18 | 4 | 17.7 | 17.7 | 0.00 | 0.00 | 0.00 | 77 | 1007.3 |
| 20260506011227 | 18 | 353 | 12.9 | 19.3 | 0.00 | 0.00 | 0.00 | 77 | 1007.1 |
| 20260506010725 | 18 | 2 | 14.5 | 22.5 | 0.00 | 0.00 | 0.00 | 77 | 1006.9 |
| 20260506010222 | 18 | 25 | 8.0 | 22.5 | 0.00 | 0.00 | 0.00 | 77 | 1006.4 |
| 20260506005720 | 18 | 5 | 14.5 | 20.9 | 0.00 | 0.00 | 0.00 | 76 | 1006.5 |
| 20260506005216 | 19 | 357 | 14.5 | 25.7 | 0.00 | 0.00 | 0.00 | 75 | 1006.4 |
| 20260506004712 | 19 | 332 | 19.3 | 19.3 | 0.00 | 0.00 | 0.00 | 75 | 1006.2 |
| 20260506004210 | 19 | 0 | 17.7 | 29.0 | 0.00 | 0.00 | 0.00 | 75 | 1006.2 |
| 20260506003706 | 19 | 350 | 22.5 | 29.0 | 0.00 | 0.00 | 0.00 | 75 | 1006.1 |
| 20260506003202 | 20 | 359 | 24.1 | 35.4 | 0.00 | 0.00 | 0.00 | 74 | 1006.3 |
| 20260506002658 | 20 | 353 | 24.1 | 29.0 | 0.00 | 0.00 | 0.00 | 74 | 1006.3 |
| 20260506002155 | 20 | 359 | 17.7 | 38.6 | 0.00 | 0.00 | 0.00 | 73 | 1006.4 |
| 20260506001650 | 20 | 358 | 25.7 | 27.4 | 0.00 | 0.00 | 0.00 | 72 | 1006.3 |
| 20260506001148 | 20 | 350 | 17.7 | 22.5 | 0.00 | 0.00 | 0.00 | 73 | 1006.0 |
| 20260506000645 | 21 | 359 | 22.5 | 32.2 | 0.00 | 0.00 | 0.00 | 71 | 1006.1 |
| 20260506000142 | 21 | 357 | 12.9 | 27.4 | 0.00 | 0.00 | 0.00 | 71 | 1006.0 |
| 20260505235640 | 21 | 349 | 9.7 | 27.4 | 0.00 | 0.00 | 0.00 | 70 | 1006.0 |
| 20260505235137 | 21 | 355 | 24.1 | 27.4 | 0.00 | 0.00 | 0.00 | 71 | 1006.4 |
| 20260505234634 | 21 | 358 | 22.5 | 30.6 | 0.00 | 0.00 | 0.00 | 70 | 1006.2 |
| 20260505234131 | 21 | 0 | 12.9 | 29.0 | 0.00 | 0.00 | 0.00 | 71 | 1006.0 |
| 20260505233628 | 21 | 358 | 25.7 | 30.6 | 0.00 | 0.00 | 0.00 | 70 | 1006.1 |
| 20260505233126 | 22 | 355 | 19.3 | 27.4 | 0.00 | 0.00 | 0.00 | 70 | 1005.9 |
| 20260505232623 | 22 | 4 | 19.3 | 33.8 | 0.00 | 0.00 | 0.00 | 69 | 1005.8 |
| 20260505232120 | 22 | 1 | 22.5 | 29.0 | 0.00 | 0.00 | 0.00 | 68 | 1005.7 |
| 20260505231617 | 22 | 343 | 14.5 | 27.4 | 0.00 | 0.00 | 0.00 | 68 | 1005.8 |
| 20260505231116 | 22 | 6 | 9.7 | 22.5 | 0.00 | 0.00 | 0.00 | 69 | 1005.8 |
| 20260505230613 | 22 | 351 | 12.9 | 33.8 | 0.00 | 0.00 | 0.00 | 67 | 1005.8 |
| 20260505230109 | 22 | 346 | 24.1 | 24.1 | 0.00 | 0.00 | 0.00 | 67 | 1005.8 |
| 20260505225606 | 23 | 339 | 11.3 | 29.0 | 0.00 | 0.00 | 0.00 | 67 | 1005.7 |
| 20260505225102 | 23 | 348 | 8.0 | 17.7 | 0.00 | 0.00 | 0.00 | 67 | 1005.7 |
| 20260505224559 | 23 | 343 | 9.7 | 19.3 | 0.00 | 0.00 | 0.00 | 68 | 1005.5 |
| 20260505224057 | 23 | 333 | 17.7 | 35.4 | 0.00 | 0.00 | 0.00 | 66 | 1005.4 |
| 20260505223554 | 23 | 333 | 16.1 | 32.2 | 0.00 | 0.00 | 0.00 | 66 | 1005.4 |
| 20260505223050 | 24 | 327 | 14.5 | 24.1 | 0.00 | 0.00 | 0.00 | 65 | 1005.6 |
| 20260505222546 | 24 | 321 | 9.7 | 25.7 | 0.00 | 0.00 | 0.00 | 64 | 1005.4 |
| 20260505222042 | 24 | 349 | 12.9 | 24.1 | 0.00 | 0.00 | 0.00 | 64 | 1005.2 |
| 20260505221539 | 24 | 324 | 17.7 | 27.4 | 0.00 | 0.00 | 0.00 | 64 | 1005.5 |
| 20260505221036 | 25 | 327 | 11.3 | 24.1 | 0.00 | 0.00 | 0.00 | 64 | 1005.4 |
| 20260505220533 | 25 | 355 | 9.7 | 24.1 | 0.00 | 0.00 | 0.00 | 63 | 1005.1 |
| 20260505220031 | 25 | 352 | 14.5 | 25.7 | 0.00 | 0.00 | 0.00 | 63 | 1005.2 |